Regional Weather Roundup
Issued by NWS State College, PA

Home | Current Version | Previous Version | Text Only | Print | Product List | Glossary Off
Versions: 1 2 3 4 5 6 7 8 9 10 11 12 13 14 15 16 17 18 19 20 21 22 23 24 25 26 27 28 29 30 31 32 33 34 35 36 37 38 39 40 41 42 43 44 45 46 47 48 49 50

000
ASUS41 KCTP 211110
RWRCTP

REGIONAL WEATHER ROUNDUP
NATIONAL WEATHER SERVICE STATE COLLEGE PA
700 AM EDT TUE OCT 21 2014

Note: "fair" indicates few or no clouds below 12,000 feet with no
significant weather and/or obstructions to visibility.

* = STATION THAT DOES NOT REPORT PRECIPITATION /E.G. RAIN...SNOW...ETC/
    THUNDER OR FOG.

PAZ002>004-007>009-013>016-020>023-029>032-211200-
WESTERN PENNSYLVANIA

CITY           SKY/WX    TMP DP  RH WIND       PRES   REMARKS
ERIE           LGT RAIN  52  46  82 N5        29.83R
MEADVILLE      CLOUDY    50  47  89 N5        29.83R
FRANKLIN*      CLOUDY    48  46  93 S5        29.84S
NEW CASTLE     LGT RAIN  50  50 100 CALM      29.85R FOG
BEAVER COUNTY  CLOUDY    50  48  93 SW6       29.85  FOG
BUTLER*        CLOUDY    50  46  87 SW5       29.86S
PITTSBURGH INT CLOUDY    50  49  96 SW6       29.85S
PITTSBURGH     CLOUDY    50  46  86 SW9       29.85R FOG
INDIANA*       FOG       48  48 100 W6        29.88S VSB 3/4
LATROBE        CLOUDY    52  52 100 SW7       29.86S FOG
WASHINGTON CO* CLOUDY    48  46  93 CALM      29.87F
$$

PAZ004>006-010>012-017>019-024>028-033>037-041-042-045-046-049>053-211200-
CENTRAL PENNSYLVANIA

CITY           SKY/WX    TMP DP  RH WIND       PRES   REMARKS
BRADFORD       CLOUDY    47  45  93 SW3       29.81R
DUBOIS         CLOUDY    48  47  96 SW6       29.82R FOG
CLEARFIELD     LGT RAIN  48  47  96 SW6       29.83S
JOHNSTOWN      FOG       47  45  93 W7        29.84R VSB 1/4
ALTOONA        CLOUDY    49  45  86 SW6       29.84S
STATE COLLEGE  CLOUDY    46  45  93 CALM      29.84R
WILLIAMSPORT   LGT RAIN  48  45  89 CALM      29.83S
SELINSGROVE    MOCLDY    48  46  93 CALM      29.85S
FT INDIANTOWN  FOG       46  46 100 NE2       29.86S VSB 1/4
CAPITAL CITY   FOG       51  50  96 E3        29.86S VSB 1/2
HARRISBURG     MOCLDY    49  48  97 CALM      29.85S FOG
YORK           FOG       44  43  96 CALM      29.86R VSB 1/2
$$

PAZ038>040-043-044-047-048-054-055-060>062-067>071-211200-
EASTERN PENNSYLVANIA

CITY           SKY/WX    TMP DP  RH WIND       PRES   REMARKS
SCRANTON       LGT RAIN  52  46  80 E3        29.84F
MOUNT POCONO   RAIN      48  46  93 CALM      29.86R FOG
ALLENTOWN      CLOUDY    50  48  93 CALM      29.87S
QUAKERTOWN*    CLOUDY    48  48 100 CALM      29.87S
READING        MOCLDY    51  49  92 CALM      29.86R
LANCASTER      PTCLDY    49  48  97 CALM      29.86S FOG
COATESVILLE    MOSUNNY   48  46  93 CALM      29.87S
POTTSTOWN      CLOUDY    50  48  93 CALM      29.88S
BLUE BELL      MOCLDY    52  50  93 CALM      29.87R
DOYLESTOWN     CLOUDY    48  47  96 CALM      29.88R
WILLOW GROVE   NOT AVBL
NORTH PHILA    MOCLDY    51  44  77 NE6       29.88F
PHILADELPHIA   MOCLDY    54  49  83 CALM      29.87S
$$



USA.gov is the U.S. government's official web portal to all federal, state and local government web resources and services.